User: anonymous   Login
Location: Ashford, WA 98304, USA
(46.7569°N, 122.0085°W)
Time: 10:45:39
(UTC-07:00)
Language:

ISS - Orbit

View from above orbital plane
View from above orbital plane
View from above satellite
View from above satellite

Ground track
Ground track

The orbit data is extracted from the following two-line orbital elements,

1 25544U 98067A   24149.30135507 -.00047698  00000-0 -81638-3 0  9999
2 25544  51.6333  53.8841 0005962 243.6300 215.9869 15.50541192455469
Epoch (UTC): 28 May 2024 07:13:57
Eccentricity: 0.0005962
inclination: 51.6333°
perigee height: 411 km
apogee height: 419 km
right ascension of ascending node: 53.8841°
argument of perigee: 243.6300°
revolutions per day: 15.50541192
mean anomaly at epoch: 215.9869°
orbit number at epoch: 45546

The dashed part of the orbit path shows where the satellite is in the earth's shadow,  

DLR